GFSSE_con_mucape_102.txt.gz
CAPE
1035 1078 1397 1544 1599 1562 1497 1482 1628 1782 2048 2069 1969 1917 1930 1925 1938 1885 1766 1813 1783 1775 1830 1713 1736 1754 1581 1232 1210 1145 826 843 969 963 842 602 480 500 502 471 484 281 732
1078 1140 1341 1596 1647 1596 1526 1596 1687 1927 2166 2244 2111 2043 1985 1986 1952 1883 2007 1914 1928 2012 1699 1571 1872 1677 1372 1284 1216 991 785 772 650 774 808 577 496 400 445 360 531 504 716
1002 1207 1295 1544 1663 1693 1707 1763 1859 2137 2290 2337 2237 2149 2127 2113 2043 1985 1958 1920 2003 2032 1695 1555 1679 1452 1206 1291 1147 1082 917 794 687 652 536 30 104 285 367 424 626 615 432
1111 1240 1327 1513 1645 1746 1797 1858 1973 2170 2311 2283 2292 2267 2247 2225 2119 2101 2088 1639 1801 2033 1851 1460 1543 1397 1299 946 958 985 902 722 542 402 24 34 76 325 303 297 294 301 227
1223 1323 1327 1485 1546 1752 1835 1962 2100 2077 2127 2178 2207 2315 2366 2351 2213 2149 1898 1633 1610 1697 1678 1436 1337 1322 1178 913 820 761 631 408 143 32 107 180 43 196 195 151 159 84 200
1149 1395 1443 1479 1538 1765 1827 2070 2130 2089 1927 1973 2064 2246 2314 2352 2333 2038 1692 1452 1306 1487 1611 1327 1272 1119 824 596 508 372 209 65 35 41 27 79 15 89 34 0 93 28 76
954 1293 1500 1488 1559 1849 1975 1984 2069 1986 1800 1862 1985 2042 2132 2199 1976 1622 1336 1354 1381 1432 1616 1422 1187 925 605 366 275 159 75 28 23 11 5 6 7 27 6 6 4 15 18
956 957 1191 1648 1611 1844 1975 1874 1856 1659 1658 1545 1675 1884 2064 2024 1742 1530 1512 1416 1415 1330 1286 1148 770 762 437 224 151 111 62 13 11 0 0 0 51 12 17 7 16 24 19
1188 1209 1094 1438 1808 1909 1910 1828 1800 1488 1342 1059 1147 1392 1479 1405 1381 1606 1523 1333 976 915 1096 967 734 495 280 207 170 114 45 5 0 0 0 0 70 22 16 19 20 18 17
1528 1445 1261 1140 1549 1919 1888 1828 1753 1629 1332 1146 694 772 853 768 751 865 992 892 1071 1037 939 633 433 242 165 132 81 28 0 0 0 0 0 0 46 20 20 15 24 11 14
1768 1599 1364 1182 1129 1281 1639 1825 1804 1618 1474 1331 1158 979 748 384 221 162 311 475 606 470 454 297 194 117 117 50 3 0 0 0 0 0 0 25 40 20 28 13 27 24 20
1666 1535 1430 1407 1359 1120 965 972 1552 1702 1618 1382 1382 1184 825 382 124 300 390 247 473 277 241 239 104 102 64 4 0 0 0 0 0 0 0 29 51 24 34 33 18 2 24
1346 1315 1283 1051 909 783 849 682 1219 1636 1135 1282 1218 1021 858 527 432 431 158 92 118 156 139 152 84 58 51 0 0 0 0 0 0 0 8 43 50 21 36 27 22 25 23
778 928 911 761 464 356 355 986 925 871 737 684 1340 1050 840 766 584 159 58 99 137 103 123 83 59 29 11 0 0 0 0 0 0 0 3 68 39 31 9 25 27 5 20
154 407 562 686 484 307 358 565 733 360 416 459 643 735 891 502 173 42 33 70 114 69 57 12 57 67 6 1 0 0 0 0 0 0 4 27 24 40 21 13 17 17 27
29 5 103 478 580 418 396 354 274 114 215 150 139 171 334 239 78 40 73 47 57 26 26 15 58 118 50 28 7 0 0 0 0 0 1 12 20 39 28 15 17 23 15
182 98 31 271 524 480 363 317 350 480 351 40 106 183 239 199 47 26 43 63 21 14 44 54 110 111 86 63 2 0 0 0 0 0 4 8 12 16 26 33 33 17 16
78 233 52 258 398 330 341 396 307 311 311 408 36 16 153 71 14 33 97 57 14 40 23 61 87 89 75 15 0 0 0 0 0 0 0 0 5 6 14 26 32 31 17
6 85 151 163 409 362 410 419 407 196 355 358 349 152 163 61 33 38 34 43 31 5 32 46 71 85 76 1 0 0 0 0 0 0 0 0 0 0 3 18 16 14 21
0 18 105 95 404 400 282 113 127 90 57 465 360 207 76 32 41 52 46 38 38 5 6 44 87 66 52 2 0 0 1 3 0 0 0 0 0 0 0 0 0 1 5
0 0 54 111 362 385 214 98 52 28 137 178 310 54 47 38 52 32 42 50 40 7 6 3 68 0 53 2 4 13 19 5 0 0 0 0 0 0 0 0 0 0 0
0 0 17 71 338 316 194 93 27 1 3 10 30 87 51 58 38 49 45 8 4 15 5 2 83 78 45 28 24 8 6 0 0 0 0 0 0 0 0 0 0 0 0
0 0 2 29 314 282 178 62 8 1 3 1 16 39 23 47 36 67 47 31 4 2 0 1 76 95 27 27 36 0 0 0 0 0 0 0 0 0 0 0 0 0 0
0 0 0 21 292 281 122 54 3 0 0 0 0 15 25 32 40 89 21 21 21 18 11 2 18 67 31 9 32 21 0 0 0 0 0 0 0 0 0 0 0 0 1
0 0 0 18 306 204 84 34 2 0 0 0 0 0 47 23 8 22 6 59 18 0 0 0 0 1 34 24 24 22 8 3 3 2 3 4 0 7 8 20 21 8 21
0 0 2 95 284 121 78 33 1 0 0 0 0 0 0 1 11 12 9 43 49 8 3 6 0 0 8 23 44 45 49 18 4 7 0 3 6 23 27 34 26 30 7

GFSSE_con_mucape_105.txt.gz
CAPE
1100 1134 1102 1061 1278 1500 1454 1576 1713 1853 1802 1893 1935 1952 1988 2039 2049 2031 2044 1931 1923 1892 1855 1780 1839 1772 1545 1285 1346 1184 1263 1112 1006 1060 1098 893 773 656 710 791 775 630 952
1284 1247 1116 1162 1038 1540 1555 1693 1840 2093 2080 2114 2091 2079 2059 2092 2094 2085 2041 2011 1930 2023 1619 1916 2070 1989 1709 1497 1232 1145 1163 1004 979 999 992 874 789 721 630 787 711 670 821
1404 1323 1408 1279 1490 1609 1637 1858 2087 2378 2403 2351 2281 2239 2221 2185 2128 2135 2171 2114 2063 2091 1745 1815 1967 1817 1565 1409 1217 1129 1046 953 936 888 837 526 541 616 638 869 886 861 761
1391 1385 1587 1329 1542 1694 1686 1875 2184 2497 2525 2457 2410 2385 2356 2315 2233 2275 2159 2144 2137 2145 2052 1703 1750 1526 1593 1380 1212 1088 1014 893 660 447 163 276 359 610 577 520 586 634 647
1273 1311 1546 1437 1500 1734 1762 1839 2189 2335 2379 2393 2388 2500 2514 2408 2346 2183 1945 1696 2041 1951 2177 1860 1657 1654 1303 1124 818 842 855 575 316 183 78 277 189 558 543 464 568 554 564
1339 1299 1247 1482 1508 1722 1892 2001 2069 2224 2141 2227 2323 2493 2529 2523 2428 1943 1845 1809 1694 1579 1929 2050 1712 1433 1079 839 786 713 431 239 215 159 131 337 380 482 320 149 438 438 320
1565 1284 1245 1466 1511 1725 2012 2171 2160 2011 2038 2134 2251 2385 2463 2465 2373 1851 1475 1318 1437 1528 1605 1841 1583 1096 859 678 574 346 184 109 385 300 314 340 244 114 65 22 6 116 165
1564 1630 1770 1461 1493 1618 1786 1952 1972 1821 1727 1976 2115 2200 2347 2301 2010 1651 1402 1309 1127 1409 1539 1496 1238 898 676 502 353 258 154 93 298 320 256 224 246 122 29 1 15 51 20
1308 1452 1887 1874 1795 1631 1665 1622 1733 1708 1634 1716 1885 1835 1885 1754 1420 1523 1259 1250 1433 1210 1225 1293 1013 685 517 331 290 211 129 76 235 184 106 178 203 68 19 4 2 3 13
1272 1311 1446 2020 1976 2126 2136 1600 1672 1382 1569 1486 1554 1635 1688 1513 1274 1087 1245 1266 1302 1167 985 980 813 565 358 275 256 204 167 65 155 119 116 119 157 12 17 28 14 13 21
1141 1347 1344 1560 2012 1927 2226 2109 1583 1429 1376 1196 1177 1344 1350 1403 1290 1128 1096 804 819 867 1158 894 602 414 257 243 234 222 158 127 107 88 89 70 67 18 29 26 20 19 22
1371 1312 1295 1373 1576 1927 1833 2149 1698 1759 1514 1382 1176 1286 1328 1012 1062 1040 763 506 744 624 683 501 353 300 212 145 152 133 84 84 101 92 74 60 73 32 27 21 18 14 23
1393 1249 1491 1313 1307 1354 1539 1703 1693 1514 1328 1422 1244 1160 868 757 420 523 601 536 727 541 914 201 171 143 82 67 87 36 31 75 73 52 37 45 58 42 50 25 26 23 23
1121 1158 1681 1373 1232 1212 1199 1245 1189 1215 1190 1336 1175 1113 1112 1045 544 295 232 315 365 727 635 139 241 90 41 78 63 0 0 3 24 19 30 16 41 42 50 37 35 28 23
831 1079 1004 1314 1242 1017 718 733 917 736 752 1267 888 842 1032 885 555 482 288 307 444 580 596 73 86 86 48 67 13 0 0 0 4 16 25 17 29 51 52 36 23 20 30
377 602 695 830 910 589 312 567 542 417 994 1103 892 508 844 903 563 326 426 242 303 214 275 66 52 69 11 51 0 0 0 0 0 14 33 32 14 53 75 41 21 20 30
406 340 298 554 694 566 436 506 685 794 922 641 565 365 369 383 580 400 172 272 145 71 67 54 61 6 8 34 0 0 0 0 0 12 24 23 12 39 45 50 34 37 29
149 145 100 109 427 484 304 334 511 323 227 154 144 75 85 75 95 142 155 50 42 63 17 44 10 8 7 61 58 22 2 0 1 9 21 12 42 23 11 28 37 36 28
0 46 97 113 230 269 340 380 421 247 214 180 92 6 46 110 171 137 103 38 35 30 26 4 5 9 3 101 85 2 0 1 1 0 28 8 35 32 23 22 18 21 26
0 0 39 153 192 144 325 393 257 255 279 143 73 221 51 2 81 89 49 46 36 22 5 2 4 7 17 93 50 28 2 5 3 29 8 36 34 27 29 21 19 10 4
0 0 9 75 119 50 276 311 273 180 274 41 479 87 107 308 126 56 55 33 53 41 2 6 6 0 24 84 28 12 2 3 13 5 26 46 31 32 16 15 11 9 5
0 0 1 26 18 130 240 347 346 157 49 51 117 3 132 96 41 49 65 53 47 34 45 8 5 0 56 61 20 13 11 4 17 11 33 37 26 22 20 7 24 18 12
0 0 0 2 2 103 198 361 309 149 66 15 112 62 74 54 54 47 41 14 33 5 3 8 2 19 0 17 35 29 14 11 12 22 34 24 15 12 13 11 3 3 5
0 0 0 4 3 33 228 379 308 157 68 0 1 29 27 55 54 39 34 32 5 0 0 4 2 0 0 0 40 34 29 7 17 7 10 7 10 5 0 13 0 1 0
0 0 0 2 56 18 216 349 272 169 53 0 1 0 8 34 48 41 14 30 4 5 13 19 9 0 0 0 0 25 29 25 18 11 7 7 9 3 1 1 2 1 0
0 0 3 0 33 16 143 310 268 146 30 0 1 0 0 17 30 14 3 16 7 8 6 1 4 3 2 0 39 28 40 28 7 11 17 21 17 4 6 11 6 2 12

GFSSE_con_mucape_108.txt.gz
CAPE
754 1248 1028 1220 1289 1544 1674 1704 1794 1865 1894 1876 1983 2066 2101 2128 2144 2205 2233 2176 2107 2125 1888 1734 1915 1715 1441 1315 1600 1542 1421 1297 1255 1304 1231 1011 1001 906 891 1101 1033 780 940
808 1369 888 987 1388 1582 1712 1800 1890 1881 1964 2069 2100 2147 2158 2231 2286 2326 2321 2221 2189 2232 1801 1736 1979 1958 1566 1686 1596 1453 1311 1224 1222 1174 1175 951 900 799 802 995 941 849 915
1174 1513 1241 955 1363 1600 1744 1937 2172 2154 2258 2330 2277 2263 2321 2354 2375 2331 2215 2181 2186 2259 2025 1844 1924 1945 1750 1664 1355 1236 1286 1245 1107 1112 1165 781 845 833 911 1011 1001 964 875
1368 1752 1683 1073 1383 1653 1819 2086 2351 2442 2481 2457 2441 2464 2483 2469 2410 2404 2311 2178 2199 2327 2252 1975 1994 1924 1696 1470 1320 1256 1263 1133 983 963 609 554 750 808 778 729 754 792 864
1336 1747 1913 1130 1448 1667 1729 2044 2346 2533 2437 2454 2498 2593 2596 2565 2552 2494 2353 2200 2324 2393 2092 1987 1926 1856 1580 1282 1133 1091 1029 764 634 546 339 421 626 751 709 789 733 770 750
1334 1608 1604 1162 1452 1712 1789 2048 2317 2421 2382 2392 2436 2634 2703 2658 2630 2378 2080 2165 1986 1994 2219 2280 2011 1623 1284 1011 997 905 651 483 239 297 234 263 340 614 566 559 646 613 493
1394 1639 2084 1390 1460 1754 1936 1986 2205 2182 2285 2324 2458 2569 2617 2615 2296 2080 1922 2001 1936 2086 2016 1960 1838 1350 1068 941 861 578 410 344 548 426 406 458 637 564 487 360 341 438 357
1763 1959 2129 1547 1503 1618 1880 1946 1874 2000 2118 2254 2398 2457 2549 2309 1983 1884 1692 1826 1707 1776 1711 1764 1466 1012 960 840 599 355 224 237 319 265 323 483 444 448 238 77 161 203 146
2032 2136 2363 2249 1965 1470 1536 1742 1770 1734 1973 2098 2142 2313 2353 2135 1611 1590 1610 1470 1106 1429 1252 1486 1244 845 807 618 439 312 151 331 524 460 245 265 419 147 32 2 2 2 21
1975 2035 2293 2314 2221 2073 2151 1465 1640 1608 1599 1975 2056 2177 2052 1823 1490 1312 1325 1083 1020 1388 1179 1366 913 660 642 524 381 276 186 301 500 279 210 214 310 122 15 4 0 2 2
1796 1757 2030 2174 2206 2129 2223 1917 1467 1537 1301 1505 1840 1952 1838 2079 1768 1600 1157 949 1077 1039 1079 943 714 669 435 418 321 230 202 531 348 278 234 159 243 55 24 10 0 3 15
1827 1736 1749 2019 2120 2226 2043 2413 2277 2179 1913 2185 1913 1885 2031 1683 1588 1257 990 686 748 593 705 751 660 535 288 197 169 156 698 345 364 200 122 146 176 37 27 19 13 18 15
1409 1634 1662 2048 2172 2186 2127 1958 2267 2238 2343 2316 2214 2132 2045 1712 1581 1487 1612 1003 1002 642 610 854 436 477 166 121 136 127 342 381 270 195 45 99 163 35 33 14 28 22 27
1197 1528 1819 1830 2154 2171 1973 1929 1986 2012 2295 2027 2188 2038 1931 1678 1582 1436 1527 1013 874 760 835 835 281 426 207 85 96 194 206 315 38 87 24 40 104 37 33 30 25 38 38
1346 1661 1785 1586 2145 2081 2113 1740 1649 1882 1858 1744 1725 1866 1790 1435 1435 1269 987 899 887 828 1005 417 676 171 116 56 64 220 184 160 87 79 42 27 44 66 43 22 50 48 48
887 1464 1747 1653 1965 2066 2113 1486 1643 1612 1445 1730 1653 1435 1578 1621 1140 1443 1147 773 817 924 974 573 623 326 117 65 45 176 161 135 91 56 59 49 37 49 64 43 57 42 48
452 730 1430 1937 2022 2134 1885 1464 1485 1279 1214 1465 1144 1410 1295 1222 1296 1180 1214 873 1027 664 617 494 128 182 86 14 98 137 132 122 96 42 34 37 45 29 38 52 52 49 42
6 167 753 1052 1644 2041 1721 1313 879 767 942 721 707 1158 909 814 1069 1022 945 754 520 609 179 69 61 9 58 8 69 107 91 101 53 29 47 34 56 42 19 37 49 76 44
0 0 192 906 1124 1678 1732 1297 801 778 684 1039 725 458 220 534 707 550 695 282 214 18 30 59 13 17 24 21 62 140 104 92 40 31 50 58 45 54 24 22 49 41 34
0 0 0 207 833 1027 1771 1281 571 678 838 781 842 649 655 509 292 465 492 210 99 47 45 20 18 10 7 11 54 106 125 74 54 25 41 16 50 40 17 38 45 20 15
0 0 0 19 567 774 1003 632 449 299 604 511 708 544 583 379 490 151 191 153 94 35 25 20 2 0 27 2 0 127 131 84 32 22 39 40 44 37 44 56 48 21 12
0 0 0 109 521 763 562 413 501 385 419 359 424 641 306 306 215 27 82 64 38 20 16 11 4 0 2 9 0 0 0 31 58 42 65 46 47 40 33 57 31 19 20
0 0 0 116 404 711 677 467 458 421 287 316 266 355 289 165 69 41 79 44 49 15 26 1 15 4 0 4 82 25 0 0 65 54 44 46 45 42 68 54 35 31 33
0 0 2 67 302 539 628 379 553 522 291 319 203 86 123 59 25 30 31 41 46 25 20 30 1 3 6 0 9 69 104 51 26 33 48 38 40 41 44 49 41 30 25
0 31 41 91 231 200 476 478 585 771 682 546 397 160 19 172 40 29 15 30 14 17 3 1 0 3 5 0 0 0 70 50 75 9 32 23 28 31 35 34 21 11 8
0 0 204 165 135 52 142 561 582 926 702 285 81 34 5 35 20 12 4 14 12 17 2 2 2 1 0 0 0 1 29 114 62 36 43 24 3 7 21 21 24 15 15

GFSSE_con_mucape_111.txt.gz
CAPE
803 1440 1222 1357 1491 1523 1660 1714 1807 1963 1960 1941 2044 2143 2156 2166 2180 2281 2255 2229 2276 2268 2196 1952 1885 1625 1541 1368 1602 1684 1549 1514 1441 1494 1514 1281 1015 923 938 1140 823 833 1033
668 1190 1054 1302 1512 1527 1597 1693 1897 2066 2098 2074 2136 2232 2243 2255 2302 2336 2316 2263 2336 2313 2085 1963 1822 1720 1604 1679 1660 1553 1463 1361 1316 1355 1417 1211 1079 872 863 977 1076 869 984
995 1315 1217 1222 1567 1583 1671 1819 2036 2204 2250 2264 2301 2324 2362 2408 2461 2462 2359 2276 2401 2442 2076 1933 1887 1852 1711 1703 1596 1527 1473 1358 1256 1257 1338 787 937 1087 1013 1137 1059 1034 869
1035 1458 1438 1104 1543 1748 1919 2107 2171 2327 2378 2394 2395 2453 2503 2495 2573 2542 2353 2151 2340 2487 2265 1988 2030 1907 1910 1582 1340 1447 1411 1289 1220 1054 797 630 794 1018 935 901 1059 959 897
939 1404 1757 1074 1388 1702 1934 2157 2291 2353 2392 2425 2424 2560 2629 2604 2617 2539 2236 2134 2360 2572 2515 2120 2046 1993 1754 1407 1317 1249 1299 1145 1098 923 718 639 671 886 926 943 933 660 720
828 1122 1542 1088 1344 1672 1944 2205 2404 2394 2302 2328 2389 2612 2685 2712 2700 2536 2227 2244 2513 2642 2641 2416 2099 1692 1357 1208 1194 1145 981 902 764 615 329 468 620 699 714 789 843 566 514
919 1580 1886 1146 1399 1718 1888 2162 2334 2326 2278 2337 2429 2523 2631 2695 2684 2305 2222 2297 2238 2212 2173 1994 1744 1407 1200 1080 1053 830 629 558 516 511 312 494 737 707 636 510 429 516 485
1242 1815 2395 1320 1424 1630 1797 1893 2046 2167 2253 2306 2368 2494 2571 2564 2368 2203 2132 2112 1936 1987 2021 1816 1533 1263 1075 1003 830 557 365 291 372 446 588 569 707 645 541 436 305 396 291
1616 2065 2592 2123 1701 1389 1527 1662 1683 1913 2093 2204 2306 2367 2319 2225 1955 1934 1948 1588 1721 1849 1727 1725 1317 1017 984 879 625 424 245 251 467 556 467 592 563 584 334 193 63 76 94
1774 1954 2497 2496 2161 1998 1817 1485 1557 1599 1819 2010 2166 2206 2030 1690 1689 1470 1414 1322 1490 1364 1601 1498 1066 818 726 568 467 383 218 251 675 370 507 458 543 317 118 7 1 0 1
1581 1705 2091 2293 2291 2352 2240 1850 1444 1536 1452 1768 1873 1726 2020 1956 1757 1649 1351 1057 821 871 1249 1199 842 727 522 389 340 281 215 590 256 271 490 280 557 154 31 12 2 0 0
1487 1338 1601 1950 2000 2097 1853 2332 1981 2012 1994 1774 1879 2230 2490 1875 1794 1633 1324 909 871 858 660 852 511 404 386 547 229 214 308 550 425 229 309 251 447 161 24 23 13 5 1
1299 1102 1035 1869 2079 2035 1630 1926 2056 2157 2142 2104 2097 2107 2137 2186 2265 1812 1936 1748 1497 643 740 609 554 633 629 425 385 212 238 343 116 153 108 193 281 102 12 21 18 8 12
870 1187 1150 1435 2018 2381 1689 1597 1731 2411 2221 2316 2293 3022 2586 2391 2119 1882 1513 1533 1580 1048 863 955 1197 1006 680 444 433 243 159 135 174 194 87 68 192 112 21 21 25 19 28
231 823 1320 1576 2089 2330 2400 1817 1907 2549 2156 2341 2127 2265 2290 1987 1940 1655 1696 1452 1223 953 1011 995 1040 945 640 299 300 196 120 120 106 126 108 17 47 84 21 15 33 31 28
5 340 1401 1855 2207 2257 2266 2363 2215 2376 2323 2158 2067 2035 2404 2228 2057 2127 1922 1681 1544 1258 1169 1270 1165 795 496 276 210 98 100 109 111 104 97 29 18 50 51 44 41 36 31
0 26 1339 1989 2569 2335 2228 2126 2024 1814 1827 2112 1822 2112 2111 2105 2088 1896 1616 1595 1580 1317 1145 1081 1007 968 658 157 87 98 94 206 127 75 62 34 41 32 42 68 72 43 33
0 4 254 1288 2129 2276 2605 2335 2029 1606 1674 1626 1729 1818 1744 1911 1939 1566 1434 1342 1453 1390 1210 880 723 412 181 65 81 72 69 105 150 78 46 27 59 57 37 45 49 43 53
0 0 11 1019 1605 2266 2695 2369 2362 1848 1543 1453 1343 1129 1390 1229 1589 1287 1303 1513 1456 970 792 596 133 114 58 55 35 37 59 102 101 39 33 30 62 57 45 27 27 26 30
0 0 0 74 1132 1735 2175 2609 2040 1548 1367 1309 1196 1144 1230 1226 1024 1232 1083 1260 988 373 119 84 40 53 18 35 36 32 46 103 86 49 51 38 51 31 48 22 43 22 10
0 0 0 0 221 1366 1347 1867 2212 1264 1031 1045 1386 1215 1045 917 820 687 898 652 376 28 75 53 33 2 14 22 33 10 49 91 135 62 96 45 49 32 14 37 36 19 8
0 0 0 0 0 258 965 1331 1772 1013 1016 1004 1046 1291 1073 1033 694 607 625 325 48 74 62 43 8 8 23 7 15 0 0 45 114 49 69 65 43 24 41 33 33 21 7
0 0 0 0 4 232 789 1315 1000 819 1048 1000 837 1025 995 898 593 721 539 153 34 48 22 18 17 19 1 9 9 0 0 0 0 88 92 80 102 57 45 14 48 45 42
0 0 2 0 45 213 814 1132 773 739 542 636 785 790 823 804 663 404 314 18 24 108 20 2 14 5 3 1 12 0 2 0 0 0 104 146 98 50 84 29 37 21 41
0 0 0 130 135 222 571 1073 952 616 877 1028 959 895 851 634 371 452 170 4 143 25 26 2 9 14 3 6 0 0 0 0 113 5 0 90 55 31 39 45 53 69 71
0 0 0 83 276 261 563 833 986 697 1233 1132 1210 1031 837 590 571 242 97 15 16 27 20 9 1 13 0 0 3 0 0 0 78 110 53 92 36 73 30 58 63 70 58

GFSSE_con_mucape_114.txt.gz
CAPE
1261 980 1316 1467 1530 1633 1657 1743 1891 1680 1855 1910 1954 2038 2059 2105 2179 2170 2212 2293 2452 2474 2241 1941 2079 1740 1558 1585 1652 1625 1661 1535 1499 1532 1508 1407 1044 998 1103 1076 975 728 1081
1190 1145 1199 1408 1558 1666 1639 1648 1738 1872 1967 2022 2049 2123 2103 2166 2228 2230 2251 2302 2341 2545 2263 2010 2058 1713 1597 1708 1659 1600 1507 1380 1323 1399 1498 1512 1296 1041 1037 1144 1001 875 984
1044 1029 1089 1279 1546 1656 1677 1839 2031 2198 2129 2131 2150 2196 2199 2270 2295 2309 2232 2268 2326 2604 2269 2123 1938 1779 1797 1671 1507 1567 1472 1373 1282 1306 1201 758 956 1182 1131 1150 1086 1073 944
1258 1182 1123 1213 1493 1675 1755 2006 2203 2329 2234 2214 2244 2291 2310 2352 2402 2355 2253 2152 2406 2558 2266 2102 2067 2003 1919 1679 1483 1413 1423 1320 1263 1184 762 749 680 1026 1085 1014 1013 949 828
1152 1344 1241 1161 1393 1706 1841 2059 2163 2247 2174 2250 2256 2388 2466 2494 2479 2441 2182 2070 2458 2667 2545 2245 2190 1932 1728 1470 1409 1410 1336 1242 1147 1024 628 698 671 1017 1146 1081 872 790 780
1043 1646 792 1050 1353 1732 1966 2204 2224 2227 2074 2148 2220 2386 2543 2617 2552 2406 2059 2074 2556 2771 2399 2654 1852 1632 1472 1322 1297 1284 1120 1074 994 656 590 746 570 955 805 804 852 795 631
1743 1656 1109 1012 1349 1720 2039 2287 2327 2192 2118 2130 2244 2357 2451 2558 2447 2241 2001 2101 2208 2190 2141 1888 1839 1483 1287 1230 1225 1065 885 785 652 367 412 571 542 854 742 696 704 597 555
2743 2263 1322 1173 1355 1541 1867 2022 2084 2084 2079 2103 2177 2248 2436 2431 2024 2158 2029 2074 1966 1929 2046 1681 1535 1338 1176 1098 1035 879 701 467 268 315 370 571 729 771 725 583 572 503 337
2608 2751 1810 1579 1433 1307 1354 1538 1844 2000 2059 1911 2099 2072 2263 2100 1751 1743 1906 1850 1590 1676 1539 1433 1264 1128 1071 996 857 738 555 284 157 423 458 370 878 751 544 497 276 128 121
2192 2885 2326 2022 1723 1612 1437 1261 1512 1735 1949 1951 2073 1914 2177 1974 1708 1558 1575 1494 1418 1481 1356 1434 1048 943 915 785 673 561 318 205 83 319 421 299 771 694 503 235 145 12 5
1895 2154 2557 2313 2019 1899 1731 1445 1273 1437 1651 1854 1983 1985 1972 1973 1789 1672 1443 1209 1264 1182 1156 1354 917 724 684 551 414 408 208 147 321 286 348 361 639 542 326 100 18 6 7
1756 1653 2176 2266 2207 2197 1824 1739 1638 1602 1513 1712 1917 1900 1660 2077 1839 1537 1370 979 922 759 869 869 652 670 522 237 221 220 95 294 157 229 215 263 449 346 158 17 14 11 16
1671 1337 1418 2251 2482 2216 1593 2062 1851 1909 1720 1637 1771 1955 2009 1959 1765 1397 1382 1021 914 629 626 511 313 409 537 489 229 150 155 154 147 197 170 266 322 288 160 19 22 18 12
1320 1260 1055 1943 2427 2289 1844 1959 1942 1756 1924 1775 1768 1788 2041 2039 1872 1737 1452 1297 1110 796 576 563 537 441 646 377 315 290 129 204 94 149 142 203 303 330 150 47 26 27 14
651 1184 1012 1517 2232 2462 2506 1713 1900 2110 2022 1950 1952 1983 1947 2080 1854 1735 1536 1381 1110 969 690 623 627 717 520 364 440 344 122 75 81 28 54 136 118 250 93 38 34 34 11
16 810 1257 1334 2133 2369 2350 2321 1777 2540 2037 2066 2000 2013 2383 2123 1819 1606 1534 1365 1259 1128 933 682 718 610 560 412 319 268 129 72 59 54 93 103 92 87 51 35 35 35 27
0 10 1442 1715 2271 2454 2514 2236 2365 1965 2296 1883 2050 1989 2116 2154 2000 1650 1520 1454 1260 985 790 703 612 590 463 298 205 169 73 40 56 67 52 59 60 25 17 47 53 55 47
0 0 1441 1650 2445 2417 2401 2342 1988 1978 2086 2159 1872 1673 1764 2059 1959 1577 1376 1310 1234 882 746 689 584 381 295 150 137 99 37 35 35 63 42 29 26 6 16 39 53 64 65
0 0 119 1846 2736 2570 2335 2494 2258 1993 1912 1611 1885 1816 1682 1757 1818 1485 1448 1310 1204 808 606 488 429 367 218 120 101 63 29 20 14 58 43 34 42 5 11 35 44 42 45
0 0 205 1592 2110 2692 2393 2266 2500 2078 1750 1557 1496 1488 1426 1693 1567 1415 1100 1282 1188 836 491 365 250 296 133 120 83 51 41 21 34 29 24 40 44 17 21 27 24 30 26
0 0 0 110 1684 2088 2201 2444 2297 2233 1812 1416 1322 1223 1089 1114 1582 985 901 957 740 478 317 156 92 97 45 62 61 61 50 11 10 38 35 7 11 18 26 15 13 18 13
0 1 3 0 0 761 1635 1611 2031 2081 1834 1449 1139 1224 1163 1169 1105 1155 874 564 539 298 53 102 18 18 30 17 29 35 18 0 1 32 34 44 13 20 39 24 19 12 0
2 19 0 0 1 43 2 1103 1439 1715 1726 1492 944 681 1286 1078 860 679 535 403 292 220 374 3 37 14 6 2 15 10 0 0 0 1 18 30 15 10 23 29 23 7 0
4 23 0 31 31 34 376 428 1324 1276 1250 1036 812 568 1006 1206 984 730 522 411 241 1 9 68 39 5 2 0 0 15 20 1 0 0 0 29 16 1 12 35 25 9 4
0 4 9 37 112 92 316 546 1184 1022 870 544 369 398 1181 1192 1092 1014 743 359 69 0 0 4 34 1 0 29 9 0 0 0 0 0 0 0 35 16 17 18 21 18 13
8 27 13 0 0 195 328 577 1163 947 733 492 570 456 740 1024 1157 948 717 246 5 2 33 7 12 1 4 3 1 2 17 0 0 1 0 0 0 11 47 37 36 30 10

GFSSE_con_mucape_117.txt.gz
CAPE
748 1056 1194 1418 1522 1580 1743 1586 1453 1584 1689 1816 1852 1888 1936 2006 1950 2054 2179 2322 2396 2448 2144 1966 1951 1689 1726 1629 1663 1608 1564 1464 1278 1590 1518 1543 1195 1117 1223 1238 1087 842 1125
812 1095 1198 1389 1494 1553 1616 1728 1557 1687 1862 1944 1966 1935 1949 2010 2004 2068 2208 2419 2514 2526 2131 1957 1891 1727 1711 1638 1703 1634 1533 1411 1316 1363 1519 1676 1479 1227 1163 1178 1064 1045 1144
899 1097 1200 1278 1457 1520 1643 1709 1876 1970 2052 2063 2052 1992 2060 2118 2159 2110 2141 2269 2613 2709 2359 2077 1936 1898 1655 1624 1537 1544 1481 1324 1276 1251 1226 901 1075 1363 1155 1237 1225 1186 1065
806 985 1058 1185 1381 1526 1647 1788 1975 2189 2175 2125 2150 2150 2203 2233 2238 2221 2117 2028 2324 2566 2548 2192 2012 1924 1666 1542 1468 1449 1408 1339 1229 1181 670 715 862 1274 1250 1124 1191 1055 895
886 915 1090 1133 1342 1553 1753 1900 2014 2121 2058 2087 2148 2286 2315 2360 2367 2329 2004 2016 2482 2593 2514 2248 2187 2004 1632 1360 1312 1316 1271 1239 1086 820 697 580 726 1147 1214 986 985 893 860
1067 943 956 1108 1294 1600 1862 1965 2012 1925 1667 1987 2093 2335 2426 2505 2502 2243 1895 2082 2609 2686 2705 2573 2381 1828 1337 1209 1205 1183 1107 978 721 643 600 885 708 1020 997 793 696 761 761
1167 703 867 1074 1341 1688 2027 2057 1978 1624 1640 1961 2062 2277 2400 2450 2319 2065 1820 2016 2099 2065 2555 2199 1988 1500 1214 1089 1125 1045 948 822 562 418 482 607 813 1013 768 771 761 786 505
1014 719 872 1106 1330 1663 1960 1976 1906 1823 1876 1947 2047 2122 2285 2208 2019 1956 1788 1870 1932 1901 1703 1675 1546 1329 1156 1061 1034 872 783 627 262 289 357 416 894 881 938 760 768 637 458
1209 781 927 1101 1193 1456 1641 1814 1834 1821 1856 1910 2017 2073 2143 2037 1846 1880 1771 1823 1587 1384 1373 1317 1179 1114 1052 983 903 768 697 482 255 218 64 419 879 984 755 726 518 339 280
1518 1011 964 994 1016 1064 1301 1603 1728 1778 1833 1706 1907 1813 2077 1915 1575 1648 1701 1612 1541 1241 1220 1172 1047 993 982 907 805 671 575 325 153 178 270 331 758 909 722 542 392 85 13
2076 1466 1239 1130 1021 958 953 1271 1494 1656 1779 1538 1833 1372 1786 1844 1575 1466 1468 1299 1378 1147 1096 942 770 906 915 720 609 522 362 142 174 205 136 313 746 807 625 521 167 31 2
2233 2003 1551 1354 1213 1160 1214 1029 1119 1346 1549 1708 1847 1403 1825 1866 1652 1435 1312 1178 1195 1053 994 839 688 621 738 415 346 196 267 183 215 193 170 315 762 686 593 379 128 25 10
1581 2042 1955 1782 1537 1431 1499 945 965 1028 1228 1449 1659 1754 1625 1669 1700 1459 1215 1025 896 868 742 682 546 296 464 324 152 88 131 94 169 107 87 191 538 597 444 237 146 61 18
1512 1530 2070 1986 1800 1765 1729 1672 1100 1148 1087 1125 1485 1753 1435 1628 1557 1404 1244 995 816 688 563 532 307 270 473 281 102 73 101 86 109 32 20 58 233 568 307 227 136 71 31
1477 1358 1627 1827 1880 1964 1582 1741 1505 1383 1377 1381 1324 1450 1826 1589 1531 1301 1164 1040 954 820 693 553 436 355 367 417 263 200 159 57 39 46 26 51 61 258 463 227 183 81 37
1474 1459 1198 1585 1916 1802 1611 1663 1674 1587 1652 1733 1469 1406 1243 1740 1716 1424 1164 1105 971 908 834 686 498 350 464 392 297 283 277 90 27 13 29 35 62 107 233 270 155 88 41
31 1353 1239 1436 1697 1688 1440 1703 1532 1738 1728 1708 1603 1640 1478 1589 1800 1535 1302 1147 1068 944 849 634 511 462 388 305 302 507 281 119 40 35 61 39 44 85 101 163 189 104 54
0 212 1112 1236 1834 2072 1696 1492 1729 2020 1878 1813 1933 1802 1909 1882 1775 1586 1350 1190 1063 954 831 682 601 498 401 325 281 177 128 82 56 29 42 24 52 42 15 41 81 67 70
0 0 926 1331 1719 1990 2174 1760 1494 1700 2149 2051 1789 1770 1689 1915 1867 1734 1456 1235 1114 923 667 484 400 332 305 279 186 131 66 73 53 51 54 28 33 17 7 30 12 34 54
0 0 611 1332 1804 1983 2096 2071 1950 1611 1619 1934 1897 1789 1648 1498 1587 1730 1574 1406 1085 907 733 554 486 413 289 226 119 42 49 63 41 25 44 32 17 20 12 21 12 30 33
0 0 69 1998 1866 1961 2135 2089 2148 2000 1760 1574 1490 1785 1643 1437 1354 1514 1573 1305 1261 929 656 555 459 704 220 99 39 54 62 60 62 12 42 40 13 28 16 1 12 35 33
0 0 2 1817 2319 2102 2065 1932 1814 2174 2177 2071 1650 1303 1513 1512 1262 1149 1834 1542 1364 1090 741 409 506 197 324 152 44 21 29 45 44 10 30 18 6 14 7 2 14 21 26
0 0 0 0 1233 2290 2216 2185 2015 1813 2005 2144 1964 1603 1363 1171 1132 980 950 1599 1233 826 443 446 372 201 20 8 33 25 19 0 6 17 15 7 1 30 15 8 11 8 13
0 0 0 0 0 0 160 1635 1862 1873 1982 1945 1835 1667 1368 1121 1225 826 753 1215 1081 661 228 9 65 22 26 20 10 31 0 1 13 4 3 28 0 23 20 14 2 12 9
2 3 15 2 1 0 0 0 914 1251 1321 1546 1786 1718 1645 1480 1135 1243 1170 673 587 494 278 27 3 169 14 15 5 3 12 4 4 0 0 0 1 29 32 42 32 12 16
0 0 0 0 0 0 0 0 799 947 1007 1083 1114 971 780 558 803 1069 1120 1112 977 291 158 38 1 5 18 11 1 2 11 0 9 0 0 0 0 0 0 43 48 31 21

GFSSE_con_mucape_123.txt.gz
CAPE
565 845 1175 1331 1417 1332 1271 1184 1210 1297 1478 1661 1721 1782 1858 1944 2032 2099 2176 2196 2197 2204 1876 1753 2155 2108 1871 1655 1825 1690 1572 1484 1656 1758 1925 1691 1641 1645 1488 1486 1400 1109 1315
684 987 1215 1364 1404 1371 1377 1286 1337 1454 1604 1737 1757 1788 1815 1946 2066 2175 2222 2284 2257 2020 1846 1835 1962 1789 1721 1749 1776 1747 1736 1589 1570 1478 1602 1831 1581 1600 1452 1387 1383 1245 1303
817 1019 1261 1378 1434 1459 1517 1498 1567 1699 1761 1778 1759 1799 1885 2055 2179 2240 2305 2337 2312 2221 1934 1917 1913 1850 1735 1775 1740 1739 1715 1591 1543 1464 1285 1282 1241 1505 1334 1367 1400 1495 1306
921 994 1206 1363 1498 1554 1558 1586 1680 1834 1829 1805 1813 1863 1963 2108 2229 2299 2338 2278 2361 2387 2075 1943 1767 1746 1699 1649 1618 1617 1490 1387 1276 1119 1149 1150 1376 1503 1395 1339 1365 1314 1255
977 1001 1045 1231 1461 1636 1591 1650 1742 1819 1755 1766 1802 1965 2018 2121 2282 2312 2219 2169 2445 2498 2173 1902 1721 1649 1530 1339 1391 1427 1256 1011 893 980 1050 899 1102 1336 1348 1254 1282 1205 1162
1003 1001 1067 1121 1265 1550 1715 1786 1838 1728 1598 1658 1777 2012 2121 2138 2176 2035 1983 1998 2568 2626 2470 1972 1668 1511 1166 1089 1195 1142 772 626 568 766 868 973 944 1318 1319 1225 1297 1146 915
970 970 1028 1116 1225 1488 1825 1929 1857 1652 1535 1614 1821 1954 2113 2146 2020 1806 1860 1934 2087 2520 2502 2199 1672 1273 1067 1013 1023 945 693 655 514 530 586 668 986 1467 1372 1183 1001 981 1016
841 926 1003 1101 1283 1555 1764 1832 1725 1593 1532 1603 1761 1870 2037 2057 1796 1667 1802 1909 1930 2077 1950 1651 1325 1163 1019 976 809 776 646 475 425 431 442 554 873 1431 1395 1064 931 879 932
715 843 984 1105 1375 1640 1747 1679 1637 1595 1571 1612 1699 1760 1853 1801 1568 1534 1715 1847 1774 1820 1640 1436 1159 1012 970 921 695 600 561 274 258 296 327 659 1262 1391 1181 836 627 623 707
662 734 847 1077 1356 1472 1613 1656 1367 1551 1615 1618 1678 1679 1684 1643 1554 1443 1543 1732 1572 1602 1522 1314 1023 954 923 878 706 452 400 250 205 211 192 605 1323 1181 1187 839 617 428 298
568 658 778 1012 1313 1346 1590 1573 1439 1562 1662 1630 1664 1662 1619 1494 1529 1470 1441 1574 1487 1347 1279 1208 949 905 905 845 751 449 336 268 168 172 155 662 1120 1106 1152 852 574 340 157
455 519 681 861 1079 1323 1498 1563 1688 1727 1602 1584 1576 1686 1556 1440 1425 1449 1407 1454 1334 1093 1105 876 814 788 831 717 642 458 276 163 117 101 146 564 1061 1169 1095 839 505 210 103
356 414 565 710 880 1041 1178 2077 2150 2121 2072 1520 1548 1665 1603 1500 1352 1396 1415 1414 1321 1116 878 841 543 507 691 694 515 358 258 109 130 124 43 452 1183 1081 963 878 455 214 110
391 378 510 581 738 870 960 1567 1657 1969 1889 1443 1743 1361 1411 1518 1419 1316 1265 1337 1338 1105 846 785 544 306 520 595 368 264 186 76 121 123 27 333 793 976 911 830 495 251 125
979 563 545 524 531 610 749 699 851 1336 1711 1195 2049 1228 1067 1766 1532 1310 1229 1120 1125 997 951 737 589 320 326 473 410 146 34 72 171 146 79 237 525 749 1057 848 567 316 170
1538 1222 662 547 494 514 554 501 524 700 935 1305 1486 1311 1052 1242 1267 1321 1233 1114 1020 908 874 700 593 378 290 235 209 173 115 40 67 69 111 289 439 398 487 883 571 373 230
1569 1647 1310 763 567 558 604 486 414 504 570 582 721 1119 1217 1193 1230 1268 1234 1151 1007 897 752 660 616 505 509 463 381 321 182 74 24 25 17 151 225 216 325 338 493 580 338
1235 1387 1715 1454 935 736 741 831 610 526 547 532 591 806 1045 1190 1107 1035 1137 1232 1105 931 841 775 740 729 711 671 568 364 206 127 69 74 22 4 0 73 136 92 186 222 224
1130 1248 1379 1775 1544 1223 1047 1098 1078 953 858 766 674 661 783 1009 1230 1238 1192 1167 1193 1151 1133 990 923 915 841 734 570 349 253 162 374 210 74 35 38 59 100 55 74 75 79
958 1254 1374 1598 1845 1709 1507 1197 1310 1304 1283 1261 1091 944 1076 943 1214 1582 1611 1458 1298 1210 1102 1048 1054 981 844 680 516 399 298 455 436 648 235 56 61 50 44 64 56 71 98
0 663 1320 1428 1700 1805 1793 1661 1567 1399 1392 1424 1497 1648 1643 1425 1391 1245 1516 1672 1688 1388 1331 1188 1047 956 840 682 405 376 288 187 152 204 48 28 121 40 47 46 12 67 71
0 0 307 1161 1324 1645 1790 1770 1535 1521 1478 1495 1678 1754 1744 1695 1677 1503 1297 1516 1666 1809 1902 1313 1059 1398 1381 909 343 309 23 9 46 41 66 33 137 56 46 57 44 64 51
0 0 0 365 838 1390 1695 1749 1724 1629 1549 1666 1734 1917 1886 1864 1822 1716 1600 1661 1759 1379 1179 909 1198 1217 1292 520 274 36 54 11 9 14 19 25 55 57 52 61 33 40 28
0 154 567 785 1061 1406 1724 1856 1822 1711 1399 1530 1684 2029 1977 1817 1964 1813 1803 1906 1887 1698 1425 901 1180 904 950 875 360 346 72 9 11 12 13 18 31 60 56 42 35 6 33
112 646 970 1226 1527 1701 1946 1980 1821 1461 1113 959 1531 1596 1702 1793 1847 1829 1810 1746 1600 1336 1318 1107 1161 987 1130 701 630 399 106 61 41 25 10 5 38 22 18 24 9 7 30
656 1072 1336 1204 1060 1107 1362 1442 1274 1242 1147 1170 1322 1478 1675 1661 1628 1653 1688 1570 1279 1269 1085 1006 1040 791 758 821 549 507 59 9 31 28 19 17 5 13 30 19 21 33 12

GFSSE_con_mucape_126.txt.gz
CAPE
484 860 1102 1349 1357 1206 1079 1054 1182 1315 1626 1886 1944 1962 1937 1940 1959 2071 2116 2098 2121 2162 1771 1763 2156 1988 1916 1957 1851 1679 1584 1573 1751 1768 1989 1760 1657 1523 1483 1606 1402 1256 1553
548 1014 1122 1367 1393 1283 1196 1163 1253 1446 1699 1878 1918 1925 1905 1934 2026 2128 2123 2165 2161 2081 1747 1725 2089 1917 1679 1755 1807 1752 1726 1586 1570 1600 1469 1634 1651 1538 1388 1391 1464 1288 1487
713 1084 1172 1326 1407 1392 1377 1369 1463 1680 1805 1863 1864 1875 1968 2057 2124 2169 2173 2155 2119 2109 1871 1876 1776 1694 1699 1783 1786 1767 1709 1576 1406 1519 1330 872 1267 1455 1404 1437 1497 1571 1317
920 1120 1202 1306 1390 1495 1429 1500 1556 1752 1816 1826 1887 1975 2058 2153 2225 2263 2224 2109 2162 2210 1875 1849 1784 1660 1639 1686 1605 1573 1528 1366 1207 1176 981 1017 1383 1445 1443 1433 1458 1462 1341
992 1181 1258 1313 1374 1503 1505 1584 1617 1649 1644 1709 1856 2093 2196 2258 2325 2350 2160 2106 2262 2327 1869 1757 1630 1533 1484 1340 1297 1324 1177 977 1064 1035 852 872 1470 1303 1507 1408 1389 1212 953
1016 1231 1361 1372 1406 1543 1632 1704 1722 1592 1510 1593 1782 2023 2234 2344 2365 2250 2012 2181 2347 2313 2068 1668 1527 1382 1142 1097 978 898 786 780 888 804 770 1011 1124 1494 1496 1337 1286 1197 1045
1058 1192 1369 1431 1497 1595 1776 1842 1749 1529 1434 1568 1775 1869 2068 2242 2174 1972 1869 2240 2250 2314 2110 1866 1466 1154 1034 1012 754 624 554 527 690 730 823 894 966 1447 1321 1228 1237 1037 889
1019 1113 1279 1373 1483 1612 1758 1776 1619 1409 1391 1524 1719 1800 1942 1932 1777 1785 1676 1949 2138 2177 1894 1473 1127 1022 962 943 795 620 604 441 459 494 576 758 1060 1392 1393 1167 1117 922 934
1008 1058 1073 1158 1262 1542 1762 1748 1556 1382 1352 1492 1632 1719 1804 1565 1450 1618 1660 1680 1822 1764 1483 1138 916 835 872 783 801 650 428 377 360 357 400 537 1319 1396 1422 1013 815 1014 796
966 1016 1042 1087 1224 1333 1557 1706 1539 1420 1370 1458 1528 1614 1650 1448 1283 1400 1643 1634 1682 1520 1304 1035 756 745 771 670 573 615 500 244 274 265 306 648 1556 1524 1327 923 785 773 714
837 929 916 898 1045 1188 1357 1521 1537 1470 1422 1473 1484 1535 1568 1402 1283 1278 1527 1601 1487 1508 1214 925 655 685 706 651 438 389 371 274 208 233 219 616 1253 1253 1177 920 739 548 376
588 687 672 696 890 1301 1182 1370 1439 1452 1388 1403 1407 1480 1388 1349 1369 1263 1350 1539 1341 1319 1220 896 602 625 692 649 527 331 308 265 210 209 165 567 1397 1316 1122 798 720 469 259
315 384 524 698 963 988 962 1405 1289 1461 1595 1664 1608 1510 1306 1288 1349 1341 1293 1393 1315 1102 1053 878 665 548 592 548 552 466 269 178 81 70 66 363 1063 1338 1028 1051 654 330 220
167 312 463 867 1040 1017 831 1607 1447 1819 2096 2232 1844 1613 1487 1168 1222 1290 1276 1317 1298 1049 888 728 511 285 411 383 397 305 203 130 73 79 73 228 676 1208 1136 1155 742 448 209
49 289 425 663 900 1107 730 853 1079 1217 1431 1533 1576 1396 1452 1814 1059 1136 1204 1232 1285 1109 893 726 516 251 234 353 331 270 151 114 22 69 86 0 441 760 1145 1130 938 556 319
168 193 452 497 554 697 594 586 650 696 1012 919 1137 1576 1466 1308 1280 1102 1113 1110 1225 1199 982 770 577 358 193 240 265 195 81 36 3 56 75 36 266 343 586 897 846 662 449
961 285 478 486 564 611 614 528 635 588 604 742 641 1173 1247 1008 1797 1553 1001 1046 1023 1062 959 871 681 457 286 198 235 219 229 173 81 25 73 62 54 202 237 407 550 724 593
1261 1065 650 507 488 532 580 513 348 360 740 845 1231 1397 1534 1430 1303 1235 915 991 997 952 862 840 733 523 390 358 403 391 376 287 141 31 11 13 112 148 127 127 115 371 485
1161 1391 1388 773 485 443 459 442 363 397 424 456 542 695 1150 1462 936 963 1016 968 968 941 876 810 678 553 494 548 448 488 482 291 117 43 11 17 0 11 39 75 104 99 49
1031 1192 1461 1527 896 543 481 639 606 513 485 518 507 525 617 781 857 1044 931 865 952 1055 933 899 915 816 671 730 705 587 503 314 158 368 385 193 63 47 41 77 87 33 65
751 908 1144 1655 1652 1339 820 768 766 696 657 613 559 503 511 560 767 902 960 1048 1055 1065 1076 1079 1135 1238 1096 812 932 423 183 177 209 35 88 160 95 87 61 58 30 33 24
0 555 1031 1266 1686 1683 1561 1306 1021 1091 934 894 879 914 860 658 975 894 993 1251 1408 1356 1312 1201 1131 1342 1088 924 573 253 30 116 142 390 26 28 86 60 51 36 27 39 18
0 0 519 1066 1408 1637 1668 1692 1605 1496 1382 1199 1249 1263 1317 1366 1560 1391 1299 1237 1290 1496 1537 1183 1052 964 831 618 850 260 52 1 0 6 80 5 18 26 30 18 33 46 30
0 0 0 350 980 1411 1724 1783 1882 1811 1666 1604 1321 1346 1438 1556 1670 1620 1490 1554 1305 1284 1476 1140 1062 781 664 687 492 761 301 30 0 0 0 1 22 224 45 20 41 60 31
3 0 0 170 900 1248 1719 1870 1894 1864 1846 1642 1440 1233 1015 898 1244 1437 1687 1784 1572 1550 1528 1505 1238 1056 570 630 607 623 572 349 45 26 0 11 6 20 41 46 39 43 20
19 97 117 375 843 1314 1666 1699 1736 1882 1727 1371 1134 789 406 33 793 1356 1744 1919 1906 1766 1584 1374 1267 911 721 711 747 664 459 668 424 86 24 0 0 4 37 45 15 17 8

GFSSE_con_mucape_129.txt.gz
CAPE
674 1175 1166 1317 1296 1182 1112 1148 1335 1637 1847 1886 1809 1800 1798 1895 1912 1956 2049 2056 2129 2205 1947 1686 1952 1993 2146 1813 1887 1716 1683 1593 1738 1886 2072 1918 1711 1661 1627 1691 1575 1273 1388
886 1260 1239 1307 1340 1256 1185 1207 1388 1710 1971 2021 1937 1886 1866 1920 1983 2077 2073 2100 2112 2136 1735 1790 2087 2066 1787 1760 1724 1631 1700 1615 1572 1710 1580 1610 1660 1590 1540 1316 1266 1395 1722
1165 1303 1536 1306 1355 1339 1343 1409 1617 1961 2134 2135 2044 1974 1985 2070 2109 2137 2074 2106 2136 2178 1807 1685 1782 1736 1678 1767 1719 1732 1636 1529 1527 1500 1503 1417 1446 1524 1537 1481 1475 1601 1297
1319 1390 1602 1341 1376 1436 1396 1490 1682 2043 2123 2079 2080 2068 2111 2186 2190 2203 2119 2027 2150 2291 2017 1793 1757 1743 1703 1655 1588 1572 1461 1360 1171 1224 1376 1390 1436 1428 1492 1459 1381 1464 1417
1357 1451 1661 1392 1398 1491 1516 1593 1702 1832 1852 1911 1998 2176 2238 2284 2306 2254 2064 1976 2162 2306 2170 1854 1746 1636 1508 1281 1252 1189 1133 1045 900 1142 1299 1380 1367 1510 1431 1242 1457 1328 1151
1485 1511 1436 1413 1461 1544 1653 1708 1751 1683 1660 1775 1944 2165 2339 2361 2346 2226 2020 2078 2255 2263 2192 1801 1592 1454 1096 974 964 861 796 926 919 1252 1238 1206 1261 1576 1223 1360 1404 1333 1190
1650 1693 1728 1470 1510 1632 1838 1838 1707 1569 1575 1749 1969 2100 2254 2334 2297 2054 1979 2124 2098 2104 1991 1807 1463 1148 950 744 731 601 641 741 1242 1280 1330 1410 1356 1511 1423 1253 1347 1180 1078
1680 1803 1863 1487 1558 1670 1820 1772 1546 1454 1510 1698 1888 2056 2181 2192 2016 1892 1981 2077 2022 1900 1694 1374 1120 1019 862 598 462 390 398 574 963 1224 1346 1393 1275 1466 1312 1175 1149 1015 945
1565 1795 1949 1941 1740 1658 1766 1704 1417 1348 1436 1586 1742 1909 2019 1875 1757 1745 1998 2013 1961 1630 1344 1086 895 804 809 540 433 445 330 391 1024 1001 1024 1215 1468 1372 1360 1055 984 1034 951
1412 1698 1850 1921 1956 2031 2024 1683 1403 1304 1361 1488 1560 1688 1736 1607 1618 1578 1834 1871 1749 1386 1095 920 674 686 674 658 463 320 291 214 848 927 935 957 1430 1406 1327 990 836 784 816
1033 1413 1605 1724 1874 1978 1697 1790 1487 1288 1295 1409 1459 1512 1532 1871 1898 1762 1610 1589 1466 1087 869 729 562 581 571 488 512 461 352 564 773 888 937 715 1383 1278 1294 875 690 814 697
1066 1182 1291 1495 1677 1703 1348 1634 1888 1791 1654 1726 1826 1889 1997 1924 1831 1726 1578 1394 1429 1028 726 580 506 525 608 1034 712 280 680 597 695 878 884 520 1401 1310 1221 796 594 559 478
841 1027 1105 1332 1545 1292 1179 1372 1540 1718 1705 1782 1892 1964 1901 1849 1781 1697 2072 1825 1924 1225 1321 643 704 872 1094 997 969 857 734 652 620 792 538 299 1175 1377 1055 814 825 618 386
402 779 1060 1209 1257 1306 1242 1177 1400 1329 1420 1492 1493 1428 1540 1679 1857 1869 1720 2017 1912 1627 1530 1334 1209 923 957 553 952 913 686 638 521 467 415 4 606 1292 1134 1238 916 589 334
389 556 773 905 982 903 1181 1067 1055 1252 1693 1607 1791 1304 1384 1298 1353 1505 1756 1797 1789 1590 1485 1332 1014 852 758 676 692 703 599 594 592 597 681 8 174 578 1216 1143 918 726 393
318 221 715 610 637 753 906 1161 1082 1222 1719 1840 1488 2224 1995 1186 1315 1100 1357 1639 1734 1607 1330 1237 990 737 699 638 712 575 550 532 509 521 610 513 0 200 350 868 827 846 606
691 376 605 617 999 733 829 1113 1039 1399 1515 1783 1930 2003 2242 1707 1236 1105 1044 1256 1576 1537 1368 1221 1006 682 626 499 600 461 417 414 414 400 516 564 362 18 133 206 464 657 684
700 651 587 748 613 1161 971 798 974 1022 845 910 1087 1173 1959 2186 1644 963 1328 984 1396 1392 1341 1207 1055 845 692 551 530 490 379 368 395 384 336 338 397 538 258 106 86 247 408
282 1343 741 971 1038 1125 959 616 589 619 616 596 504 583 1321 1739 1692 967 1097 1050 1179 1279 1055 1099 779 938 573 386 365 261 168 603 414 354 389 353 231 207 599 228 58 68 72
45 1569 1364 952 1015 1282 1337 1087 808 454 518 417 482 484 888 1220 1338 1314 1209 749 1181 1069 845 787 758 647 622 614 399 419 460 90 384 663 325 90 171 260 223 314 347 164 56
0 1361 1863 1408 1077 1116 1257 1247 1039 929 667 652 904 1031 865 839 1160 1425 1118 1199 1050 789 768 748 736 618 573 482 409 345 517 179 127 456 551 304 120 129 84 277 302 177 65
0 838 1847 1995 1533 1071 1071 1303 1324 1386 1221 976 1027 982 1015 1119 898 1033 1007 962 729 714 721 767 711 747 705 580 402 347 317 196 109 117 285 267 384 428 369 176 193 134 139
0 0 1400 1960 1967 1695 1461 1483 1319 1326 1213 1286 1037 842 948 1015 1125 1182 1099 849 712 798 831 828 868 868 586 492 546 574 256 223 90 46 119 168 60 183 162 272 162 106 60
0 0 880 1634 2098 2166 2068 1842 1624 1516 1300 1441 1247 996 985 1097 1121 1027 1120 956 914 843 1034 1056 1074 1080 837 521 434 487 266 91 116 62 2 5 83 204 156 17 32 41 53
0 0 95 896 1474 1930 2145 2062 2041 1990 2160 1949 1649 1488 1423 1390 1048 939 746 687 892 879 1052 1169 1268 1222 1164 1154 408 358 356 277 185 171 105 53 26 45 22 21 27 23 36
0 0 0 197 942 1244 1554 1712 1914 1714 1728 1749 1623 1440 1634 1116 1062 746 326 8 198 645 961 1045 1154 1246 1041 1132 850 481 270 267 381 331 50 154 7 30 25 58 46 24 41

GFSSE_con_mucape_132.txt.gz
CAPE
983 1778 1251 1343 1392 1340 1395 1534 1684 1677 1671 1746 1878 1836 1852 1912 1979 2011 2068 2048 2078 2246 1779 1693 2144 2332 2238 1659 1859 2066 1779 2029 2040 2159 2093 1741 1621 1427 1465 1425 1391 1417 1648
1049 1714 1259 1328 1347 1340 1461 1530 1692 1766 1848 1921 1899 1884 1913 1978 2054 2080 2087 2166 2270 2328 1642 1619 2213 2372 1802 1722 1766 1757 1713 1709 1772 1858 1909 1774 1650 1133 1125 1198 1130 1492 1738
1350 1740 1727 1315 1336 1413 1559 1752 1941 2103 2115 2080 2017 1977 2028 2096 2160 2121 2160 2159 2261 2265 1875 1678 1893 1801 1706 1821 1759 1796 1756 1628 1636 1746 1796 1362 1164 1398 1472 1536 1672 1530 1683
1583 1890 1828 1324 1367 1475 1574 1815 2058 2303 2249 2125 2084 2097 2155 2240 2201 2188 2182 2112 2221 2257 1978 1766 1829 1791 1725 1715 1651 1582 1545 1342 1182 1285 1378 1092 1094 1427 1373 1429 1396 1159 1502
1743 1895 1992 1387 1384 1538 1633 1849 2052 2197 2082 2065 2083 2246 2311 2376 2302 2258 2109 2078 2297 2395 2202 1886 1857 1734 1567 1383 1295 1293 1239 1066 1088 1192 1156 1325 1363 1383 1384 1343 1276 1351 1312
1865 1913 1723 1424 1461 1565 1711 1894 2047 2017 1974 1987 2052 2278 2425 2480 2379 2211 2004 2132 2387 2477 2387 2028 1746 1503 1161 1062 1001 970 884 836 803 962 1069 1157 1385 1376 1363 1640 1595 1238 1116
2086 2136 2132 1475 1510 1619 1855 1938 1893 1858 1875 1950 2084 2206 2349 2454 2316 2073 1964 2126 2231 2317 2206 1970 1588 1211 969 853 805 691 746 721 944 843 998 1134 1499 1491 1484 1360 1385 1437 1177
2291 2387 2353 1535 1558 1648 1804 1797 1652 1680 1786 1936 2083 2183 2282 2291 2117 1998 1976 2062 1997 1977 1810 1504 1203 1029 791 698 545 514 572 624 745 924 945 1145 1395 1639 1460 1268 1324 1114 1051
2451 2665 2682 2258 1886 1659 1719 1602 1473 1502 1662 1865 2050 2172 2243 2136 1930 1909 1977 1974 1900 1690 1427 1184 985 780 618 477 342 276 365 477 910 883 745 1020 1215 1583 1310 1084 966 1118 899
2350 2597 2752 2560 2342 2247 2117 1496 1390 1386 1516 1712 1913 2080 2114 1919 1782 1823 1945 1939 1710 1437 1178 1025 783 673 473 306 281 197 182 251 778 813 838 1126 1196 1038 1273 1020 896 1069 964
2195 2443 2655 2635 2502 2454 2367 1913 1343 1311 1402 1559 1739 1946 2048 2040 2157 2115 1868 1875 1539 1106 934 800 643 658 483 304 231 219 120 558 576 674 836 705 1302 1052 1154 936 1120 913 781
2186 2251 2431 2579 2469 2412 2080 2300 2026 1755 1747 1841 1881 2161 2038 2060 2115 2008 1829 1717 1430 905 716 592 530 550 565 1019 816 302 680 639 734 648 714 741 1370 1146 1186 1120 927 523 553
1705 1944 2046 2360 2429 2337 1974 2126 2070 2064 1871 1926 1998 2107 1968 2131 2232 2075 2258 2090 1979 970 1061 699 882 1015 950 1079 1003 852 776 946 702 720 503 423 983 1278 1253 833 656 471 511
526 1742 1763 1864 2204 2312 1842 1970 2032 2160 2194 2062 2139 2494 2446 2320 2273 2145 2128 1959 1909 1566 1363 920 830 917 1254 1191 1148 1123 1093 867 738 655 533 90 529 1205 1117 876 701 734 590
0 1154 1535 1641 1947 2103 2017 1731 1992 2089 2119 2083 2183 2693 2461 2311 2353 2192 2238 2018 1916 1828 1511 1547 1339 1311 1342 1164 1077 1177 1111 1020 885 651 572 126 3 575 1102 1073 890 884 622
0 321 1199 1448 1728 1830 1804 1849 1935 2082 2050 2048 2107 2274 2502 2326 2359 2328 2268 2110 2286 2131 1748 1705 1575 1487 1300 1155 1128 1076 1009 895 871 764 654 563 34 36 375 956 813 795 692
0 91 507 1372 1523 1619 1552 1913 1836 1729 1596 1815 1851 1903 1996 2339 2325 2258 2122 2219 1971 2100 1973 1764 1549 1472 1307 1189 1147 1171 1065 984 852 857 770 616 397 19 0 93 483 675 687
0 0 188 824 1251 1420 1477 1709 1771 1697 1625 1548 1841 1937 2002 1870 2215 2104 1917 1940 2028 2262 1906 1843 1662 1509 1267 1212 1223 1139 1069 1017 960 939 878 762 665 644 242 2 54 351 443
0 0 0 863 1235 1336 1359 1585 1852 1688 1749 1813 1666 1698 1729 1782 1936 1856 1800 1607 2162 2015 1841 1768 1683 1560 1395 1217 1161 1199 1199 1060 768 739 901 748 727 673 675 352 22 33 104
0 0 0 376 1389 1485 1476 1614 1677 1680 1749 1717 1804 1924 1863 1761 2123 1761 1675 1298 1874 1972 1767 1619 1562 1654 1507 1522 988 1014 1205 974 765 596 897 712 721 534 716 711 712 249 15
0 0 0 56 1517 1865 1647 1746 1568 1500 1162 1361 1444 1309 1501 1368 1873 1964 1474 1396 1955 1821 1728 1445 1483 1381 1483 1381 1338 818 805 1000 764 639 776 707 507 565 639 699 578 604 233
0 0 0 0 1238 1717 1817 1886 1881 1912 1333 1117 1068 1144 1240 1279 1491 1678 1470 1785 1704 1697 1816 1407 1504 1329 1349 1400 1128 1004 857 552 515 856 658 541 591 485 318 451 458 532 585
0 0 0 0 566 1603 1746 1851 1766 1978 1419 1124 1201 1328 1595 1587 1351 1609 1411 1672 1648 1581 1512 1438 1322 1160 977 1130 1555 963 1006 769 677 599 547 559 473 300 497 382 501 475 471
0 0 0 0 114 1568 1717 1679 1606 1755 1413 1274 1534 1313 1363 1553 1531 1715 1863 1637 1682 1371 1266 1086 1406 1413 1658 1106 1000 1489 1340 979 629 548 386 522 530 366 215 177 303 430 206
0 0 0 0 0 1366 1974 1764 1878 1743 1730 1518 1396 1594 1836 1570 1566 1631 1680 1735 1115 1154 833 713 720 1058 1829 1881 1045 1030 1422 742 320 380 514 347 363 297 402 624 386 272 76
92 38 6 0 2 1171 1984 2082 2163 1939 2040 2394 2234 2392 2046 1854 1469 1526 1076 827 823 468 121 64 759 877 983 1503 1477 1436 1262 949 752 577 349 452 633 553 450 443 426 246 193